Zurück zum Katalog

BLOCK DM-SL R/B

AktivMEO
NORAD 67758·ROCKET BODY·🇷🇺 Russia

Gestartet Feb 12, 2026 von Baikonur Cosmodrome

Loading…

Nächste Überflüge (nächste 24 Stunden)

TLE

AktuellSource: Space-Track

Epoche: Sep 14, 2026, 12:54 UTC

1 67758U 26028C   26257.53773643 -.00000025  00000-0  00000-0 0  9999
2 67758   0.1529  51.3981 0101134 262.6111  45.1701  1.03179975  1919

Verfolge BLOCK DM-SL R/B in Echtzeit mit AllMySat

Download on the App Store